Truth Or Consequences, NM

7:14 AM MDT on April 30, 2017 (GMT -0600)
Truth Or Consequences Municipal

Weather History for KTCS - March, 2014

Change the Weather History Date:

Sunday, March 2, 2014

  Actual Average Record
Temperature  
Mean Temperature 50 °F -  
Max Temperature 61 °F 63 °F 82 °F (2016)
Min Temperature 39 °F 36 °F 19 °F (2002)
Degree Days  
Heating Degree Days 15    
Month to date heating degree days  
Since 1 July heating degree days  
Cooling Degree Days 0    
Month to date cooling degree days  
Year to date cooling degree days  
Moisture  
Dew Point 31 °F    
Average Humidity 59    
Maximum Humidity 92    
Minimum Humidity 25    
Precipitation  
Precipitation 0.04 in - 0.04 in (2003)
Month to date precipitation 0.08  
Year to date precipitation 0.08  
Sea Level Pressure  
Sea Level Pressure 29.91 in    
Wind  
Wind Speed 7 mph (WNW)    
Max Wind Speed 23 mph    
Max Gust Speed 29 mph    
Visibility 10 miles    
Events Rain    
T = Trace of Precipitation, MM = Missing Value Source: NWS Daily Summary

Daily Weather History Graph

Daily Weather History Graph

Search for Another Location

Airport or City:

Trip Planner

Search our weather history database for the weather conditions in past years. The results will help you decide how hot, cold, wet, or windy it might be!

Date:

Astronomy

Mar. 02, 2014 Rise Set
Actual Time 6:35 AM MST 6:06 PM MST
Civil Twilight 6:11 AM MST 6:31 PM MST
Nautical Twilight 5:42 AM MST 7:00 PM MST
Astronomical Twilight 5:13 AM MST 7:29 PM MST
Moon 7:15 AM MST (3/2) 7:58 PM MST (3/2)
Length of Visible Light 12h 20m
Length of Day
11h 30m
Waxing Crescent, 3% of the Moon is Illuminated
Mar 2
Waxing Crescent
Mar 8
First Quarter
Mar 16
Full
Mar 23
Last Quarter
Mar 30
New

Hourly Weather History & Observations

Time (MST) Temp. Windchill Dew Point Humidity Pressure Visibility Wind Dir Wind Speed Gust Speed Precip Events Conditions
12:53 AM 45.0 °F - 43.0 °F 93% 29.86 in 8.0 mi Calm Calm - 0.04 in Rain Light Rain
1:53 AM 44.1 °F 39.5 °F 43.0 °F 96% 29.81 in 10.0 mi SE 8.1 mph - 0.01 in   Mostly Cloudy
2:53 AM 44.1 °F - 42.1 °F 93% 29.81 in 10.0 mi Calm Calm - N/A   Overcast
3:53 AM 45.0 °F 38.9 °F 39.9 °F 82% 29.80 in 10.0 mi South 12.7 mph - N/A   Clear
4:53 AM 44.1 °F 37.1 °F 39.0 °F 82% 29.82 in 10.0 mi SSW 15.0 mph - N/A   Clear
5:53 AM 43.0 °F 38.2 °F 37.9 °F 82% 29.86 in 10.0 mi SSW 8.1 mph - N/A   Clear
6:53 AM 39.9 °F - 37.0 °F 89% 29.89 in 10.0 mi Calm Calm - N/A   Clear
7:53 AM 45.0 °F 43.5 °F 39.0 °F 80% 29.90 in 10.0 mi East 3.5 mph - N/A   Clear
8:53 AM 48.9 °F - 35.1 °F 59% 29.90 in 10.0 mi SW 4.6 mph - N/A   Clear
9:53 AM 55.0 °F - 28.0 °F 35% 29.91 in 10.0 mi NW 16.1 mph 23.0 mph N/A   Clear
10:53 AM 55.0 °F - 28.0 °F 35% 29.93 in 10.0 mi NW 15.0 mph 23.0 mph N/A   Mostly Cloudy
11:53 AM 57.9 °F - 28.0 °F 32% 29.92 in 10.0 mi WNW 15.0 mph 25.3 mph N/A   Scattered Clouds
12:53 PM 57.9 °F - 27.0 °F 31% 29.91 in 10.0 mi WNW 11.5 mph 23.0 mph N/A   Overcast
1:53 PM 60.1 °F - 27.0 °F 28% 29.91 in 10.0 mi WNW 11.5 mph 26.5 mph N/A   Mostly Cloudy
2:53 PM 61.0 °F - 27.0 °F 27% 29.88 in 10.0 mi WNW 9.2 mph - N/A   Mostly Cloudy
3:53 PM 61.0 °F - 25.0 °F 25% 29.90 in 10.0 mi NW 11.5 mph 21.9 mph N/A   Partly Cloudy
4:53 PM 59.0 °F - 25.0 °F 27% 29.92 in 10.0 mi NNW 9.2 mph 16.1 mph N/A   Clear
5:53 PM 57.0 °F - 24.1 °F 28% 29.94 in 10.0 mi NNW 9.2 mph - N/A   Clear
6:53 PM 54.0 °F - 25.0 °F 33% 29.99 in 10.0 mi NW 5.8 mph - N/A   Clear
7:53 PM 53.1 °F - 25.0 °F 34% 30.00 in 10.0 mi NW 9.2 mph - N/A   Clear
8:53 PM 50.0 °F - 26.1 °F 39% 30.01 in 10.0 mi Variable 3.5 mph - N/A   Clear
9:53 PM 50.0 °F - 26.1 °F 39% 29.99 in 10.0 mi NNW 9.2 mph - N/A   Clear
10:53 PM 46.9 °F - 26.1 °F 44% 30.00 in 10.0 mi Calm Calm - N/A   Clear
11:53 PM 44.1 °F 41.5 °F 27.0 °F 51% 30.03 in 10.0 mi SW 4.6 mph - N/A   Clear